Погода в Оренбурге

Погода в Оренбурге : погода сейчас, прогноз погоды и архив. Всё, что Вы хотите узнать о погоде в Оренбурге!

Хотите узнать прогноз погоды в Оренбурге? Тогда Вам сюда: Погода в Оренбурге

Поиск расширенной информации на нашем сайте:

Другие новости

Новости СМИ2

Главная страница сайта

Новости сайта

02.10.2013

Напоминаем, что на нашем новом сайте вы можете получить высокодетализированные прогнозы погоды по пунктам России, СНГ и мира (включающие важные для авиации метеовеличины, такие как направление и скорость ветра, видимость, явления погоды, количество и форма облачности, нижняя и верхняя граница облачности), а также ознакомиться с разнообразными материалами по авиационной метеорологии и подборкой полезных ссылок на эту тему.

Сайт Метеоцентр.Азия посвящён разработке технологий оптимизации авиаметеорологического обслуживания, включая проектирование и перспективное создание нескольких автоматизированных авиаметеорологических систем:
- система выпуска высокодетальных прогностических карт явлений погоды для нижнего воздушного пространства по России и ближнему зарубежью;
- система верификации прогнозов TAF (выпускаемых синоптиками официальных АМСГ РФ и ближнего зарубежья) и AUTOTAF (выпускаемых сайтом Метеоцентр.Азия) - выявление ошибок, онлайн-сопоставление с фактической погодой METAR, автоматическое внесение коррективов в прогнозы при резком отклонении фактической погоды от прогноза, подсчёт оправдываемости прогнозов по элементам и в целом;
- система обработки, анализа и отображения авиаметеорологической информации для применения провайдерами метеорологической информации.


Погода в Оренбурге - сегодня

Время (UTC), дата Ветер
(°,м/с) 
Видим.   Явления Облачность Т
(°С)
Тd
(°С)
f(%) Тe
(°С)
Pmin
(гПа)
dP
(гПа)
Po
(мм)
O2
(г/м3)
Тmin Tmax R s Состояние
почвы
18 14.01.17 090 (В) 20000 м    ясно 
-18.7 -19.8 91 -23  1035.8  0.3  765  332           
21 14.01.17 090 (В) 20000 м    ясно 
-20.5 -21.7 90 -23  1036.3  0.4  765  335           
00 15.01.17 100 (В) 20000 м  [диам. изморози 0 мм]  ясно 
-20.9 -22 91 -25  1037.1  0.8  766  336           
03 15.01.17 100 (В) 20000 м  [диам. изморози 4 мм]  ясно 
-20.9 -22.2 89 -25  1036.7  -0.5  765  336  -21.7      14  неравномерный
сухой снег
100% 
06 15.01.17 090 (В) 20000 м  [диам. изморози 4 мм]  3/0 верхняя 
[Ci fib]
-20 -21.4 89 -23  1037.8  1.1  766  335           
09 15.01.17 100 (В) 20000 м  [диам. изморози 4 мм]  3/0 верхняя 
[Ci fib]
-16.4 -17.6 90 -20  1037  -0.5  766  330           
12 15.01.17 090 (В) 20000 м    3/0 верхняя 
[Ci fib]
-16.4 -18.2 86 -20  1037.7  0.7  766  330           
15 15.01.17 100 (В) 20000 м    ясно 
-18 -19.5 88 -22  1037.9  0.1  766  332    -15.5       
18 15.01.17 090 (В) 20000 м    ясно 
-18.1 -19.3 90 -22  1037.7  -0.2  766  332           
21 15.01.17 080 (В) 20000 м    ясно 
-18.6 -19.8 90 -21  1038.2  0.5  767  333           
00 16.01.17 080 (В) 20000 м    ясно 
-17.7 -19.4 87 -22  1038.2  767  332           
03 16.01.17 080 (В) 20000 м    ясно 
-17.7 -19.4 87 -22  1038.1  0.1  766  332  -18.9      14  неравномерный
сухой снег
100% 
06 16.01.17 090 (В) 10 км    ясно 
-16 -18.3 82 -21  1038.7  0.7  767  330           
09 16.01.17 090 (В) 10 км    1/0 верхняя 
[Ci sp]
-12.2 -15.8 75 -17  1037.9  -0.6  767  325           
12 16.01.17 100 (В) 20000 м    1/0 верхняя 
[Ci sp]
-11.1 -15.3 71 -13  1038.1  0.3  767  323           
15 16.01.17 090 (В) 20000 м    ясно 
-12.6 -16 76 -17  1037.8  -0.4  766  325    -10.9       
18 16.01.17 080 (В) 20000 м    ясно 
-14.7 -17 83 -18  1038.2  0.3  767  328           
21 16.01.17 090 (В) 20000 м    ясно 
-15.4 -17.8 82 -20  1037.9  -0.3  766  329           
00 17.01.17 090 (В) 20000 м    ясно 
-16 -18.4 82 -20  1038.1  0.2  767  330           
03 17.01.17 тихо ()   20000 м    ясно 
-19.1 -21 85 -19  1038  -0.3  766  334  -19.1      14  неравномерный
сухой снег
100% 
06 17.01.17 090 (В) 20000 м    3/0 верхняя 
[Ci fib]
-15.4 -18.4 78 -19  1037.7  0.1  766  329  -19.9         
09 17.01.17 090 (В) 20000 м    1/0 верхняя 
[Ci fib]
-12.5 -17 69 -17  1036.6  -0.9  766  325           
12 17.01.17 100 (В) 20000 м    1/0 верхняя 
[Ci fib]
-11.7 -15.3 75 -16  1035.9  -0.6  765  323           
15 17.01.17 090 (В) 20000 м    ясно 
-14.3 -16.2 85 -18  1035.9  -0.2  765  327    -11.3       
18 17.01.17 100 (В) 20000 м    ясно 
-16.2 -17.2 92 -21  1035.1  -0.8  764  329           
Время (UTC), дата Ветер
(°,м/с) 
Видим.   Явления Облачность Т
(°С)
Тd
(°С)
f(%) Тe
(°С)
Pmin
(гПа)
dP
(гПа)
Po
(мм)
O2
(г/м3)
Тmin Tmax R s Состояние
почвы

Для получения пояснительной информации подведите курсор к названию столбца.

ПОГОДА в Оренбурге - архив

Всё, что Вы хотите узнать о погоде в Оренбурге - удобно и подробно!

Выберите нужную дату (начиная с 1 января 2015* года) и нажмите кнопку "Найти".
Будут отображены архивные сводки погоды по пункту Оренбург, начиная с указанной даты.


Отображать данные в формате CSV (для использования в таблицах Excel)


Внимание! Наш архив погоды предназначен исключительно для личного некоммерческого использования в познавательных целях. Если Вам необходимы официальные справки о состоянии погоды (для производственных, юридических, коммерческих и т.п. целей), обращайтесь в органы Росгидромета.

*Примечание: данная дата относится к архиву по метеостанциям СССР (Россия, СНГ, Балтия).
Архив по метеостанциям Зарубежной Европы и Азии (кроме Китая) хранится 10 дней, по другим регионам земного шара (Китай, Африка, Америка, Австралия, Океания) - 1 день.

Оренбург - район местоположения метеостанции


Название, широта, долгота, высота метеостанции:
Оренбург (город) 51.7°ш. 55.1°д. 117 м над ур. моря [Российская Федерация]

Дополнительная информация

В oтличие oт бoльшинства пoгoдных сайтoв мы публикуем пoдрoбную метеoинфoрмацию в детальнoм прoфессиoнальнoм фoрмате.

Характеристики температуры и влажнoсти вoздуха измеряются на высoте 2 м в тени вдали oт зданий и деревьев.
Скoрoсть ветра измеряется на высoте 10 м (на урoвне рoста челoвека скoрoсть ветра ниже в 1.5-2 раза). Если метеoстанция нахoдится в гoрoде или в лесу, тo скoрoсть ветра занижена на 2-4 м/с пo сравнению с oткрытым местoм. Скoрoсть ветра над акватoриями крупных рек и oзёр, а также на вершинах хoлмoв на 2-5 м/с выше, чем в oбычных услoвиях.
Атмoсфернoе давление в разных тoчках местнoсти мoжет значительнo oтличаться oт давления на метеoстанции, в зависимoсти oт услoвий рельефа (при пoдъёме на 10 м давление пoнижается примернo на 1 мм рт.ст.).